Location: Gouy
(50.0008°N, 3.2556°E)
Time: 08:21:56
(UTC+00:00)

Cosmos 2333 Rocket - Pass Details

Date: 23 May 2024
Orbit: 838 x 864 km, 70.8° (Epoch: 25 April)

Event Time Altitude Azimuth Distance (km) Brightness Sun altitude
Rises 00:48:23 0° 333° (NNW) 3,418 6.1 -17.9°
Reaches altitude 10° 00:51:08 10° 343° (NNW) 2,483 5.5 -17.8°
Maximum altitude 00:56:11 32° 46° (NE) 1,443 4.0 -17.6°
Drops below altitude 10° 01:01:15 10° 108° (ESE) 2,488 4.7 -17.3°
Sets 01:03:59 0° 118° (ESE) 3,425 5.3 -17.2°
